Weather History for Bainbridge, GA

Change the Weather History Date:

Wednesday, October 10, 2012

  Actual Average (KMAI) Record (KMAI)
Temperature  
Mean Temperature 70 °F 70 °F  
Max Temperature 82 °F 82 °F 93 °F (2010)
Min Temperature 57 °F 59 °F 39 °F (2000)
Degree Days  
Heating Degree Days 0    
Month to date heating degree days  
Since 1 July heating degree days  
Cooling Degree Days 4    
Month to date cooling degree days  
Year to date cooling degree days  
Growing Degree Days 20 (Base 50)    
Moisture  
Dew Point 60 °F    
Average Humidity 79    
Maximum Humidity 100    
Minimum Humidity 48    
Precipitation  
Precipitation 0.00 in 0.11 in 2.05 in (1999)
Month to date precipitation 1.03  
Year to date precipitation 43.16  
Sea Level Pressure  
Sea Level Pressure 30.12 in    
Wind  
Wind Speed 2 mph (North)    
Max Wind Speed 9 mph    
Max Gust Speed -    
Visibility 7 miles    
Events Fog    
T = Trace of Precipitation, MM = Missing Value Source: NWS Daily Summary

Daily Weather History Graph

Daily Weather History Graph

Search for Another Location

Airport:

Trip Planner

Search our weather history database for the weather conditions in past years. The results will help you decide how hot, cold, wet, or windy it might be!

Date:

Astronomy

Oct. 10, 2012 Rise Set
Actual Time 7:38 AM EDT 7:12 PM EDT
Civil Twilight 7:13 AM EDT 7:36 PM EDT
Nautical Twilight 6:45 AM EDT 8:04 PM EDT
Astronomical Twilight 6:17 AM EDT 8:32 PM EDT
Moon 2:33 AM EDT (10/10) 3:57 PM EDT (10/10)
Length of Visible Light 12h 22m
Length of Day
11h 33m
Waning Crescent, 27% of the Moon is Illuminated
Oct 10
Waning Crescent
Oct 15
New
Oct 21
First Quarter
Oct 29
Full
Nov 6
Last Quarter

Hourly Weather History & Observations

Time (EDT) Temp. Heat Index Dew Point Humidity Pressure Visibility Wind Dir Wind Speed Gust Speed Precip Events Conditions
12:15 AM 59.0 °F - 59.0 °F 100% 30.11 in 4.0 mi ENE 3.5 mph - N/A   Clear
12:35 AM 59.0 °F - 59.0 °F 100% 30.10 in 3.0 mi ENE 3.5 mph - N/A   Mist
12:55 AM 59.0 °F - 57.2 °F 94% 30.10 in 3.0 mi East 3.5 mph - N/A   Mist
1:15 AM 59.0 °F - 59.0 °F 100% 30.10 in 4.0 mi Calm Calm - N/A   Scattered Clouds
1:35 AM 59.0 °F - 57.2 °F 94% 30.11 in 4.0 mi Calm Calm - N/A   Scattered Clouds
1:55 AM 59.0 °F - 59.0 °F 100% 30.10 in 4.0 mi Calm Calm - N/A   Mostly Cloudy
2:15 AM 59.0 °F - 57.2 °F 94% 30.10 in 3.0 mi Calm Calm - N/A   Mist
2:35 AM 59.0 °F - 57.2 °F 94% 30.10 in 3.0 mi East 3.5 mph - N/A   Mist
2:55 AM 59.0 °F - 57.2 °F 94% 30.09 in 3.0 mi East 3.5 mph - N/A   Mist
3:15 AM 57.2 °F - 55.4 °F 94% 30.09 in 3.0 mi Calm Calm - N/A   Mist
3:35 AM 57.2 °F - 57.2 °F 100% 30.09 in 3.0 mi Calm Calm - N/A   Mist
3:55 AM 59.0 °F - 59.0 °F 100% 30.09 in 3.0 mi Calm Calm - N/A   Overcast
4:15 AM 59.0 °F - 59.0 °F 100% 30.08 in 3.0 mi Calm Calm - N/A   Mist
4:35 AM 59.0 °F - 57.2 °F 94% 30.09 in 3.0 mi Calm Calm - N/A   Mist
4:55 AM 59.0 °F - 57.2 °F 94% 30.09 in 4.0 mi Calm Calm - N/A   Scattered Clouds
5:15 AM 59.0 °F - 59.0 °F 100% 30.10 in 4.0 mi Calm Calm - N/A   Scattered Clouds
5:35 AM 59.0 °F - 59.0 °F 100% 30.10 in 4.0 mi Calm Calm - N/A   Mostly Cloudy
5:55 AM 59.0 °F - 59.0 °F 100% 30.11 in 4.0 mi Calm Calm - N/A   Mostly Cloudy
6:15 AM 59.0 °F - 59.0 °F 100% 30.11 in 4.0 mi Calm Calm - N/A   Scattered Clouds
6:35 AM 59.0 °F - 59.0 °F 100% 30.12 in 4.0 mi Calm Calm - N/A   Scattered Clouds
6:55 AM 59.0 °F - 57.2 °F 94% 30.12 in 4.0 mi Calm Calm - N/A   Clear
7:15 AM 59.0 °F - 57.2 °F 94% 30.14 in 5.0 mi Calm Calm - N/A   Scattered Clouds
7:35 AM 59.0 °F - 57.2 °F 94% 30.14 in 4.0 mi Calm Calm - N/A   Scattered Clouds
7:55 AM 59.0 °F - 59.0 °F 100% 30.14 in 4.0 mi Calm Calm - N/A   Scattered Clouds
8:35 AM 59.0 °F - 59.0 °F 100% 30.15 in 3.0 mi Calm Calm - N/A   Overcast
8:55 AM 60.8 °F - 59.0 °F 94% 30.16 in 2.5 mi Calm Calm - N/A   Overcast
9:15 AM 62.6 °F - 60.8 °F 94% 30.16 in 1.8 mi Calm Calm - N/A   Mostly Cloudy
9:35 AM 62.6 °F - 60.8 °F 94% 30.16 in 0.5 mi Calm Calm - N/A Fog Fog
9:55 AM 62.6 °F - 60.8 °F 94% 30.16 in 0.5 mi Calm Calm - N/A Fog Fog
10:15 AM 62.6 °F - 62.6 °F 100% 30.17 in 0.2 mi Calm Calm - N/A Fog Fog
10:35 AM 62.6 °F - 62.6 °F 100% 30.18 in 0.2 mi Calm Calm - N/A Fog Fog
10:55 AM 64.4 °F - 64.4 °F 100% 30.18 in 3.0 mi Calm Calm - N/A   Overcast
11:15 AM 68.0 °F - 66.2 °F 94% 30.18 in 4.0 mi Calm Calm - N/A   Overcast
11:35 AM 71.6 °F - 68.0 °F 88% 30.18 in 7.0 mi Calm Calm - N/A   Scattered Clouds
12:15 PM 75.2 °F - 64.4 °F 69% 30.15 in 10.0 mi Calm Calm - N/A   Clear
12:35 PM 77.0 °F - 64.4 °F 65% 30.15 in 10.0 mi West 3.5 mph - N/A   Clear
12:55 PM 78.8 °F - 64.4 °F 61% 30.15 in 10.0 mi NW 5.8 mph - N/A   Clear
1:15 PM 78.8 °F - 64.4 °F 61% 30.14 in 10.0 mi WNW 6.9 mph - N/A   Clear
1:35 PM 80.6 °F 81.8 °F 62.6 °F 54% 30.13 in 10.0 mi NW 8.1 mph - N/A   Clear
1:55 PM 80.6 °F 81.8 °F 62.6 °F 54% 30.11 in 10.0 mi North 5.8 mph - N/A   Clear
2:15 PM 80.6 °F 81.8 °F 62.6 °F 54% 30.10 in 10.0 mi North 4.6 mph - N/A   Clear
2:35 PM 80.6 °F 81.8 °F 62.6 °F 54% 30.09 in 10.0 mi Calm Calm - N/A   Clear
2:55 PM 82.4 °F 83.4 °F 62.6 °F 51% 30.09 in 10.0 mi WNW 5.8 mph - N/A   Clear
3:15 PM 82.4 °F 83.4 °F 62.6 °F 51% 30.08 in 10.0 mi NNW 6.9 mph - N/A   Clear
3:35 PM 82.4 °F 83.4 °F 62.6 °F 51% 30.08 in 10.0 mi West 6.9 mph - N/A   Clear
3:55 PM 82.4 °F 82.9 °F 60.8 °F 48% 30.08 in 10.0 mi West 3.5 mph - N/A   Clear
4:15 PM 82.4 °F 83.4 °F 62.6 °F 51% 30.07 in 10.0 mi NNE 6.9 mph - N/A   Clear
4:35 PM 82.4 °F 82.9 °F 60.8 °F 48% 30.07 in 10.0 mi North 4.6 mph - N/A   Clear
4:55 PM 82.4 °F 82.9 °F 60.8 °F 48% 30.07 in 10.0 mi NNW 3.5 mph - N/A   Clear
5:15 PM 82.4 °F 82.9 °F 60.8 °F 48% 30.07 in 10.0 mi Calm Calm - N/A   Clear
5:35 PM 82.4 °F 82.9 °F 60.8 °F 48% 30.07 in 10.0 mi NNW 9.2 mph - N/A   Clear
5:55 PM 82.4 °F 82.9 °F 60.8 °F 48% 30.08 in 10.0 mi NNW 6.9 mph - N/A   Clear
6:15 PM 80.6 °F 81.1 °F 59.0 °F 48% 30.08 in 10.0 mi NW 9.2 mph - N/A   Clear
6:35 PM 80.6 °F 81.5 °F 60.8 °F 51% 30.08 in 10.0 mi NNW 8.1 mph - N/A   Clear
6:55 PM 77.0 °F - 59.0 °F 54% 30.09 in 10.0 mi NNW 6.9 mph - N/A   Clear
7:15 PM 77.0 °F - 60.8 °F 57% 30.09 in 10.0 mi North 5.8 mph - N/A   Clear
7:35 PM 75.2 °F - 59.0 °F 57% 30.10 in 10.0 mi North 4.6 mph - N/A   Clear
7:55 PM 73.4 °F - 59.0 °F 61% 30.11 in 10.0 mi North 4.6 mph - N/A   Clear
8:15 PM 73.4 °F - 59.0 °F 61% 30.11 in 10.0 mi North 4.6 mph - N/A   Clear
8:35 PM 71.6 °F - 59.0 °F 64% 30.12 in 10.0 mi Calm Calm - N/A   Clear
8:55 PM 71.6 °F - 59.0 °F 64% 30.12 in 7.0 mi Calm Calm - N/A   Clear
9:15 PM 69.8 °F - 60.8 °F 73% 30.13 in 10.0 mi Calm Calm - N/A   Clear
9:35 PM 69.8 °F - 60.8 °F 73% 30.14 in 10.0 mi Calm Calm - N/A   Clear
9:55 PM 69.8 °F - 60.8 °F 73% 30.14 in 10.0 mi North 3.5 mph - N/A   Clear
10:15 PM 68.0 °F - 60.8 °F 78% 30.15 in 10.0 mi Calm Calm - N/A   Clear
10:35 PM 64.4 °F - 60.8 °F 88% 30.15 in 10.0 mi Calm Calm - N/A   Clear
10:55 PM 64.4 °F - 60.8 °F 88% 30.16 in 10.0 mi Calm Calm - N/A   Clear
11:15 PM 64.4 °F - 59.0 °F 83% 30.16 in 10.0 mi Calm Calm - N/A   Clear
11:35 PM 62.6 °F - 59.0 °F 88% 30.17 in 10.0 mi Calm Calm - N/A   Clear
11:55 PM 62.6 °F - 59.0 °F 88% 30.17 in 10.0 mi Calm Calm - N/A   Clear